TimeCST,TemperatureF,Dew PointF,Humidity,Sea Level PressureIn,VisibilityMPH,Wind Direction,Wind SpeedMPH,Gust SpeedMPH,PrecipitationIn,Events,Conditions,WindDirDegrees,DateUTC
12:56 AM,19.0,16.2,89,30.29,10.0,Calm,Calm,-,N/A,,Partly Cloudy,0,2013-12-31 06:56:00
1:56 AM,21.0,17.1,85,30.30,10.0,SSW,6.9,-,N/A,,Partly Cloudy,210,2013-12-31 07:56:00
2:56 AM,20.1,16.2,85,30.31,10.0,SW,6.9,-,N/A,,Clear,220,2013-12-31 08:56:00
3:56 AM,20.1,16.2,85,30.31,10.0,SW,6.9,-,N/A,,Clear,220,2013-12-31 09:56:00
4:56 AM,21.0,17.1,85,30.33,10.0,WSW,8.1,-,N/A,,Clear,250,2013-12-31 10:56:00
5:56 AM,19.0,16.2,89,30.37,10.0,WSW,8.1,-,N/A,,Clear,250,2013-12-31 11:56:00
6:56 AM,21.0,16.2,81,30.40,10.0,WNW,3.5,-,N/A,,Clear,300,2013-12-31 12:56:00
7:56 AM,23.0,18.1,82,30.41,10.0,Variable,4.6,-,N/A,,Clear,0,2013-12-31 13:56:00
8:56 AM,27.1,20.1,75,30.44,10.0,WSW,8.1,-,N/A,,Clear,240,2013-12-31 14:56:00
9:56 AM,30.0,20.1,67,30.46,10.0,WNW,6.9,-,N/A,,Clear,290,2013-12-31 15:56:00
10:56 AM,32.0,19.0,59,30.46,10.0,NW,8.1,-,N/A,,Clear,310,2013-12-31 16:56:00
11:56 AM,34.0,20.1,57,30.43,10.0,West,5.8,-,N/A,,Clear,260,2013-12-31 17:56:00
12:56 PM,36.0,21.0,55,30.40,10.0,Variable,5.8,-,N/A,,Clear,0,2013-12-31 18:56:00
1:56 PM,37.9,21.0,51,30.38,10.0,Variable,4.6,-,N/A,,Clear,0,2013-12-31 19:56:00
2:56 PM,36.9,22.1,55,30.36,10.0,South,5.8,-,N/A,,Clear,170,2013-12-31 20:56:00
3:56 PM,36.0,25.2,65,30.35,10.0,South,9.2,-,N/A,,Clear,190,2013-12-31 21:56:00
4:56 PM,32.9,25.2,73,30.35,10.0,South,9.2,-,N/A,,Clear,190,2013-12-31 22:56:00
5:56 PM,32.0,23.0,69,30.33,10.0,South,6.9,-,N/A,,Clear,180,2013-12-31 23:56:00
6:56 PM,32.0,23.0,69,30.33,10.0,South,5.8,-,N/A,,Clear,170,2014-01-01 00:56:00
7:56 PM,30.0,23.0,75,30.34,10.0,South,5.8,-,N/A,,Clear,180,2014-01-01 01:56:00
8:56 PM,29.1,25.2,85,30.33,10.0,South,6.9,-,N/A,,Clear,190,2014-01-01 02:56:00
9:56 PM,29.1,25.2,85,30.32,10.0,SSW,8.1,-,N/A,,Clear,210,2014-01-01 03:56:00
10:56 PM,30.0,25.2,82,30.32,10.0,South,8.1,-,N/A,,Clear,190,2014-01-01 04:56:00
11:56 PM,29.1,25.2,85,30.32,10.0,South,5.8,-,N/A,,Clear,190,2014-01-01 05:56:00